Location: Unspecified
(0.0000°N, 0.0000°E)
Time: 07:06:05
(UTC+00:00)

Courier 1B - Pass Details

Date: 02 October 2023
Orbit: 962 x 1208 km, 28.3° (Epoch: 06 December)

Event Time Altitude Azimuth Distance (km) Brightness Sun altitude
Rises 16:52:52 0° 318° (NW) 4,099 11.3 14.1°
Reaches altitude 10° 16:56:09 10° 328° (NNW) 3,132 10.6 13.3°
Maximum altitude 17:02:50 30° 27° (NNE) 1,966 9.0 11.6°
Drops below altitude 10° 17:09:19 10° 86° (E) 3,049 9.5 10.0°
Sets 17:12:27 0° 96° (E) 3,975 10.0 9.2°
